| time (UTC) | temp F | wind direction | speed knots | gust knots | rain 1hr in | rain 24hr in | rain mn in | humidity % | barometer mb |
| 20260507153033 | 57 | 301 | 5.2 | 13.9 | 0.00 | 0.00 | 0.00 | 67 | 1014.2 |
| 20260507151531 | 57 | 276 | 5.2 | 12.2 | 0.00 | 0.00 | 0.00 | 68 | 1014.0 |
| 20260507150037 | 56 | 264 | 6.1 | 12.2 | 0.00 | 0.00 | 0.00 | 71 | 1014.0 |
| 20260507144530 | 56 | 302 | 6.1 | 13.0 | 0.00 | 0.00 | 0.00 | 73 | 1013.9 |
| 20260507143026 | 55 | 257 | 5.2 | 10.4 | 0.00 | 0.00 | 0.00 | 74 | 1013.7 |
| 20260507141533 | 55 | 310 | 6.1 | 12.2 | 0.00 | 0.00 | 0.00 | 74 | 1013.5 |
| 20260507140024 | 54 | 347 | 2.6 | 8.7 | 0.00 | 0.00 | 0.00 | 77 | 1013.5 |
| 20260507134521 | 53 | 293 | 3.5 | 9.6 | 0.00 | 0.00 | 0.00 | 77 | 1013.2 |
| 20260507133020 | 0 | 0.0 | 0.0 | 0.00 | 0.00 | 0.00 | 1013.2 | ||
| 20260507131516 | 0 | 0.0 | 0.0 | 0.00 | 0.00 | 0.00 | 1013.0 | ||
| 20260507130013 | 0 | 0.0 | 0.0 | 0.00 | 0.00 | 0.00 | 1012.9 | ||
| 20260507124509 | 0 | 0.0 | 0.0 | 0.00 | 0.00 | 0.00 | 1013.0 | ||
| 20260507123006 | 0 | 0.0 | 0.0 | 0.00 | 0.00 | 0.00 | 1013.0 | ||
| 20260507121603 | 0 | 0.0 | 0.0 | 0.00 | 0.00 | 0.00 | 1013.0 | ||
| 20260507120056 | 0 | 0.0 | 0.0 | 0.00 | 0.00 | 0.00 | 1013.0 | ||
| 20260507114600 | 0 | 0.0 | 0.0 | 0.00 | 0.00 | 0.00 | 1012.9 | ||
| 20260507113046 | 0 | 0.0 | 0.0 | 0.00 | 0.00 | 0.00 | 1013.0 | ||
| 20260507111543 | 0 | 0.0 | 0.0 | 0.00 | 0.00 | 0.00 | 1012.9 | ||
| 20260507110043 | 0 | 0.0 | 0.0 | 0.00 | 0.00 | 0.00 | 1012.9 | ||
| 20260507104533 | 0 | 0.0 | 0.0 | 0.00 | 0.00 | 0.00 | 1012.9 | ||
| 20260507103031 | 0 | 0.0 | 0.0 | 0.00 | 0.00 | 0.00 | 1012.6 | ||
| 20260507101533 | 55 | 283 | 3.5 | 11.3 | 0.00 | 0.00 | 0.00 | 75 | 1012.8 |
| 20260507100023 | 56 | 318 | 0.9 | 6.1 | 0.00 | 0.00 | 0.00 | 76 | 1012.8 |
| 20260507094521 | 56 | 311 | 1.7 | 7.8 | 0.00 | 0.00 | 0.00 | 76 | 1012.7 |
| 20260507093017 | 56 | 269 | 3.5 | 8.7 | 0.00 | 0.00 | 0.00 | 75 | 1012.7 |
| 20260507091518 | 56 | 290 | 1.7 | 6.1 | 0.00 | 0.00 | 0.00 | 75 | 1012.7 |
| 20260507090013 | 56 | 300 | 0.0 | 4.3 | 0.00 | 0.00 | 0.00 | 74 | 1012.8 |
| 20260507084510 | 57 | 308 | 1.7 | 6.1 | 0.00 | 0.00 | 0.00 | 73 | 1012.6 |
| 20260507083007 | 57 | 1 | 3.5 | 8.7 | 0.00 | 0.00 | 0.00 | 72 | 1012.5 |
| 20260507081505 | 57 | 297 | 0.0 | 8.7 | 0.00 | 0.00 | 0.00 | 70 | 1012.4 |
| 20260507080002 | 57 | 323 | 2.6 | 9.6 | 0.00 | 0.00 | 0.00 | 69 | 1012.6 |
| 20260507074601 | 58 | 285 | 0.0 | 3.5 | 0.00 | 0.00 | 0.00 | 66 | 1012.5 |
| 20260507073107 | 58 | 149 | 1.7 | 10.4 | 0.00 | 0.00 | 0.00 | 65 | 1012.3 |
| 20260507071554 | 58 | 310 | 0.0 | 7.0 | 0.00 | 0.00 | 0.00 | 65 | 1012.3 |
| 20260507070057 | 59 | 307 | 1.7 | 6.1 | 0.00 | 0.00 | 0.00 | 63 | 1012.1 |
| 20260507064553 | 59 | 314 | 4.3 | 11.3 | 0.00 | 0.00 | 0.00 | 62 | 1012.0 |
| 20260507063048 | 59 | 321 | 2.6 | 8.7 | 0.00 | 0.00 | 0.00 | 61 | 1011.8 |
| 20260507061548 | 60 | 294 | 1.7 | 6.1 | 0.00 | 0.00 | 0.00 | 60 | 1011.8 |
| 20260507060053 | 60 | 283 | 0.0 | 4.3 | 0.00 | 0.00 | 0.00 | 59 | 1011.9 |
| 20260507054546 | 61 | 299 | 0.9 | 6.1 | 0.00 | 0.00 | 0.00 | 58 | 1011.9 |
| 20260507053045 | 62 | 283 | 0.0 | 2.6 | 0.00 | 0.00 | 0.00 | 56 | 1011.9 |
| 20260507051545 | 62 | 295 | 0.0 | 2.6 | 0.00 | 0.00 | 0.00 | 55 | 1011.8 |
| 20260507050044 | 62 | 253 | 0.0 | 0.0 | 0.00 | 0.00 | 0.00 | 56 | 1012.0 |
| 20260507044557 | 62 | 297 | 0.0 | 2.6 | 0.00 | 0.00 | 0.00 | 55 | 1011.8 |
| 20260507043043 | 63 | 302 | 0.0 | 8.7 | 0.00 | 0.00 | 0.00 | 55 | 1011.7 |
| 20260507041546 | 63 | 298 | 2.6 | 7.8 | 0.00 | 0.00 | 0.00 | 55 | 1011.3 |
| 20260507040045 | 64 | 292 | 2.6 | 8.7 | 0.00 | 0.00 | 0.00 | 54 | 1011.0 |
| 20260507034544 | 65 | 288 | 4.3 | 9.6 | 0.00 | 0.00 | 0.00 | 52 | 1010.7 |
| 20260507033050 | 66 | 271 | 3.5 | 10.4 | 0.00 | 0.00 | 0.00 | 51 | 1010.5 |
| 20260507031553 | 67 | 297 | 5.2 | 14.8 | 0.00 | 0.00 | 0.00 | 52 | 1010.4 |
| 20260507030100 | 68 | 279 | 6.1 | 14.8 | 0.00 | 0.00 | 0.00 | 52 | 1010.3 |
| 20260507024600 | 69 | 252 | 7.8 | 14.8 | 0.00 | 0.00 | 0.00 | 51 | 1010.0 |
| 20260507023038 | 70 | 283 | 7.8 | 18.2 | 0.00 | 0.00 | 0.00 | 50 | 1009.7 |
| 20260507021542 | 70 | 297 | 10.4 | 18.2 | 0.00 | 0.00 | 0.00 | 49 | 1009.5 |
| 20260507020051 | 71 | 290 | 7.8 | 13.9 | 0.00 | 0.00 | 0.00 | 47 | 1009.3 |
| 20260507014547 | 72 | 269 | 4.3 | 13.0 | 0.00 | 0.00 | 0.00 | 45 | 1009.3 |
| 20260507013040 | 73 | 334 | 6.1 | 13.0 | 0.00 | 0.00 | 0.00 | 45 | 1009.2 |
| 20260507011539 | 74 | 295 | 5.2 | 12.2 | 0.00 | 0.00 | 0.00 | 43 | 1009.2 |
| 20260507010041 | 75 | 302 | 6.1 | 14.8 | 0.00 | 0.00 | 0.00 | 42 | 1009.2 |
| 20260507004533 | 75 | 278 | 9.6 | 14.8 | 0.00 | 0.00 | 0.00 | 43 | 1009.1 |
| 20260507003033 | 75 | 297 | 8.7 | 14.8 | 0.00 | 0.00 | 0.00 | 44 | 1009.3 |
| 20260507001535 | 76 | 6 | 13.0 | 18.2 | 0.00 | 0.00 | 0.00 | 42 | 1009.0 |
| 20260507000033 | 77 | 288 | 10.4 | 15.6 | 0.00 | 0.00 | 0.00 | 41 | 1008.8 |
| 20260506234530 | 78 | 300 | 4.3 | 13.0 | 0.00 | 0.00 | 0.00 | 42 | 1009.0 |
| 20260506233029 | 78 | 319 | 7.8 | 13.0 | 0.00 | 0.00 | 0.00 | 39 | 1009.1 |
| 20260506231531 | 78 | 300 | 11.3 | 14.8 | 0.00 | 0.00 | 0.00 | 38 | 1009.2 |
| 20260506230028 | 77 | 298 | 7.0 | 16.5 | 0.00 | 0.00 | 0.00 | 40 | 1009.3 |
| 20260506224527 | 78 | 307 | 8.7 | 14.8 | 0.00 | 0.00 | 0.00 | 39 | 1009.3 |
| 20260506223026 | 80 | 287 | 7.0 | 13.0 | 0.00 | 0.00 | 0.00 | 38 | 1009.6 |
| 20260506221525 | 79 | 311 | 7.0 | 17.4 | 0.00 | 0.00 | 0.00 | 37 | 1009.7 |
| 20260506220025 | 80 | 280 | 9.6 | 17.4 | 0.00 | 0.00 | 0.00 | 36 | 1009.8 |
| 20260506214522 | 79 | 290 | 8.7 | 17.4 | 0.00 | 0.00 | 0.00 | 38 | 1009.9 |
| 20260506213021 | 79 | 286 | 8.7 | 14.8 | 0.00 | 0.00 | 0.00 | 37 | 1010.0 |
| 20260506211522 | 80 | 304 | 8.7 | 16.5 | 0.00 | 0.00 | 0.00 | 37 | 1010.3 |
| 20260506210018 | 79 | 293 | 8.7 | 16.5 | 0.00 | 0.00 | 0.00 | 37 | 1010.5 |
| 20260506204516 | 79 | 332 | 12.2 | 19.1 | 0.00 | 0.00 | 0.00 | 38 | 1010.4 |
| 20260506203011 | 79 | 314 | 10.4 | 17.4 | 0.00 | 0.00 | 0.00 | 38 | 1010.2 |
| 20260506201510 | 79 | 299 | 11.3 | 18.2 | 0.00 | 0.00 | 0.00 | 39 | 1010.3 |
| 20260506200006 | 79 | 322 | 11.3 | 17.4 | 0.00 | 0.00 | 0.00 | 38 | 1010.5 |
| 20260506194504 | 78 | 293 | 7.8 | 14.8 | 0.00 | 0.00 | 0.00 | 38 | 1010.6 |
| 20260506193059 | 76 | 307 | 7.8 | 13.9 | 0.00 | 0.00 | 0.00 | 43 | 1010.6 |
| 20260506191556 | 75 | 305 | 7.0 | 13.9 | 0.00 | 0.00 | 0.00 | 47 | 1010.8 |
| 20260506190055 | 73 | 314 | 7.0 | 16.5 | 0.00 | 0.00 | 0.00 | 48 | 1010.9 |
| 20260506184552 | 72 | 288 | 10.4 | 14.8 | 0.00 | 0.00 | 0.00 | 50 | 1011.5 |
| 20260506183049 | 71 | 270 | 9.6 | 15.6 | 0.00 | 0.00 | 0.00 | 51 | 1011.4 |
| 20260506181545 | 70 | 269 | 7.8 | 14.8 | 0.00 | 0.00 | 0.00 | 52 | 1011.7 |
| 20260506180046 | 70 | 311 | 8.7 | 13.9 | 0.00 | 0.00 | 0.00 | 53 | 1012.1 |
| 20260506174542 | 69 | 295 | 7.0 | 14.8 | 0.00 | 0.00 | 0.00 | 54 | 1012.2 |
| 20260506173108 | 69 | 311 | 7.8 | 14.8 | 0.00 | 0.00 | 0.00 | 55 | 1012.4 |
| 20260506171537 | 68 | 302 | 7.0 | 13.9 | 0.00 | 0.00 | 0.00 | 57 | 1012.4 |
| 20260506170040 | 67 | 283 | 6.1 | 14.8 | 0.00 | 0.00 | 0.00 | 57 | 1012.5 |
| 20260506164534 | 66 | 304 | 4.3 | 14.8 | 0.00 | 0.00 | 0.00 | 59 | 1012.2 |
| 20260506163036 | 65 | 267 | 7.8 | 12.2 | 0.00 | 0.00 | 0.00 | 59 | 1012.2 |
| 20260506161528 | 64 | 292 | 7.0 | 13.9 | 0.00 | 0.00 | 0.00 | 63 | 1012.2 |
| 20260506160026 | 63 | 263 | 6.1 | 13.0 | 0.00 | 0.00 | 0.00 | 63 | 1012.3 |
| 20260506154523 | 62 | 287 | 2.6 | 13.0 | 0.00 | 0.00 | 0.00 | 66 | 1012.3 |